sat.trackr.live / text

‹ back to catalog

SDX02

NORAD 62460 · 2024-253B

PAYLOAD ACTIVE UNKNOWN

§ Identity

Operator
Country
IND
Launch date
2024-12-30
Launch site
SRILR
Launch vehicle
Mass (kg)
RCS (m²)

External: N2YO · Heavens-Above · Gunter

§ Orbital elements

Epoch: 2026-05-25T04:07:30.293760Z

Period
91.96 min
Inclination
54.9933°
Eccentricity
0.0006495
Mean motion
15.65939606 rev/d
Perigee alt
366.2 km
Apogee alt
374.9 km
Semi-major
6,748.7 km
B*
6.1550e-4
RAAN
96.1296°
Arg perigee
97.6533°
Mean anomaly
262.5245°
Rev number
7,891

§ Raw data

SDX021 62460U 24253B   26145.17187840  .00063821  00000+0  61550-3 0  99972 62460  54.9933  96.1296 0006495  97.6533 262.5245 15.65939606 78914

JSON: /api/v1/satellites/62460 · /tle

For live sub-satellite position, see the globe view (requires WebGL).

§ Visibility from observer

Set your observer location to see the next 7 days of passes ≥ 10°. The values pass through the URL so the page stays shareable.

No JS? Fill the form by hand. The geolocation button needs JavaScript.

§ Radio — SatNOGS DB

ModeDescriptionDownlinkUplink
BPSK S-band telemetry 2.240 GHz
BPSK S-band telemetry 2.210 GHz

2 transmitters · refreshed weekly from db.satnogs.org